Yachats, OR

2:57 PM PDT on September 23, 2014 (GMT -0700)
Newport Municipal | Change Station
CLOSE
Current Station
Airport
Location: Newport Airport,
Elevation: 157 ft
Nearby Weather Stations
Active Advisory: Special Statement

Elev 157 ft 44.58 °N, 124.06 °W | Updated 22 minutes ago

Rain
Rain
63 °F
Feels Like 63 °F
N
18
Wind Variable Wind from South
Gusts 30 mph

Today
High -- | Low -- °F
--% Chance of Precip.
Yesterday
High -- | Low -- °F
Precip. -- in
7:04 AM 7:11 PM
Waning Crescent, 0% visible
Pressure 29.83 in
Visibility 3.0 miles
Clouds Overcast 500 ft
Dew Point 61 °F
Humidity 94%
Rainfall 0.05 in
Snow Depth 0 in , 0 in , 0 in
UV 2 out of 12
Pollen .40 out of 12
Air Quality Not available.
Flu Activity Not available.
METAR KONP 232135Z AUTO 19016G26KT 3SM RA OVC005 17/16 A2983 RMK AO2

More Conditions Fewer Conditions

Pressure 29.83 in
Visibility 3.0 miles
Clouds Overcast 500 ft
Dew Point 61 °F
Humidity 94%
Rainfall 0.05 in
Snow Depth 0 in , 0 in , 0 in
UV 2 out of 12
Pollen .40 out of 12
Air Quality Not available.
Flu Activity Not available.
METAR KONP 232135Z AUTO 19016G26KT 3SM RA OVC005 17/16 A2983 RMK AO2

More Conditions Fewer Conditions

10-Day Weather Forecast

Almanac

Astronomy

Sep. 23, 2014 Rise Set
Actual Time 7:04 AM PDT 7:11 PM PDT
Civil Twilight 6:35 AM PDT 7:40 PM PDT
Nautical Twilight 6:01 AM PDT 8:14 PM PDT
Astronomical Twilight 5:27 AM PDT 8:49 PM PDT
Moon 6:34 AM PDT 6:52 PM PDT
Length of Visible Light 13h 04m
Length of Day
12h 06m
Tomorrow will be 3m 3s shorter.
Waning Crescent, 0% of the Moon is Illuminated
Today
Waning Crescent
Sep 24
New
Oct 1
First Quarter
Oct 8
Full
Oct 15
Last Quarter

Today's Extremes

State Highs State Lows

Community

WunderPhotos

Upload Photos

1,755,794 photos uploaded!

WunderBlogs® & News

By Dr. Jeff Masters
Director of Meteorology, Weather Underground
By Kari Strenfel
Meteorologist, Weather Underground
By Christopher C. Burt
Weather Historian, Weather Underground
September 23, 2014
September 23, 2014
September 23, 2014

Nearby

Snow Depth

Station Depth Elevation
Hogg Pass 0 in 4760 ft
Bigelow Camp 0 in 5120 ft
Roaring River 0 in 4900 ft
Seine Creek 0 in 2000 ft
Greenpoint 1 in 3200 ft

Earthquake Activity

City Distance Mag. Time & Date
No recent earthquake activity has been reported nearby.
Minimum magnitude displayed is 2.5.

Coastal Water Temperatures

Place Temperature
South Beach, OR 57.0 °F
Charleston, OR 60.1 °F

Nearby Weather Stations